SWU1915 LIMJ-LIPB

Flight info

Callsign SWU1915
Flight time 0h 38m
Altitude 20000
Route GEN DCT ADOSA
Aircraft DH8D/M-SDE2E3FGRY/H

Departure

Time 2026-04-22 11:15
Airport Genoa Cristoforo Colombo Airport (LIMJ)

Arrival

Time 2026-04-22 11:53
Airport Bolzano Airport (LIPB)
Time Latitude Longitude Altitude Speed Heading
2026-04-22 11:06 44.41313 8.84811 26 ft 0 kts 195°
2026-04-22 11:11 44.41309 8.84810 26 ft 2 kts 196°
2026-04-22 11:11 44.41306 8.84787 26 ft 2 kts 333°
2026-04-22 11:11 44.41335 8.84818 27 ft 4 kts 56°
2026-04-22 11:12 44.41346 8.84858 28 ft 4 kts 76°
2026-04-22 11:12 44.41354 8.84902 28 ft 4 kts 75°
2026-04-22 11:12 44.41352 8.84945 28 ft 5 kts 95°
2026-04-22 11:12 44.41343 8.85008 27 ft 13 kts 115°
2026-04-22 11:13 44.41294 8.85232 23 ft 27 kts 119°
2026-04-22 11:13 44.41137 8.85246 22 ft 23 kts 193°
2026-04-22 11:13 44.41025 8.85147 21 ft 11 kts 241°
2026-04-22 11:13 44.41020 8.85084 21 ft 0 kts 284°
2026-04-22 11:14 44.41038 8.84988 22 ft 44 kts 287°
2026-04-22 11:14 44.41201 8.84160 18 ft 128 kts 286°
2026-04-22 11:14 44.41454 8.82777 191 ft 156 kts 284°
2026-04-22 11:15 44.41633 8.81272 752 ft 163 kts 276°
2026-04-22 11:15 44.41633 8.79612 1186 ft 181 kts 262°
2026-04-22 11:15 44.40974 8.78095 1609 ft 193 kts 207°
2026-04-22 11:15 44.39680 8.77922 1917 ft 192 kts 148°
2026-04-22 11:16 44.38908 8.79274 2396 ft 181 kts 92°
2026-04-22 11:16 44.38923 8.80979 2970 ft 178 kts 81°
2026-04-22 11:16 44.39011 8.82686 3566 ft 178 kts 79°
2026-04-22 11:16 44.39151 8.84426 4111 ft 181 kts 77°
2026-04-22 11:17 44.39329 8.86158 4681 ft 183 kts 76°
2026-04-22 11:17 44.39540 8.87912 5238 ft 186 kts 75°
2026-04-22 11:17 44.39776 8.89678 5817 ft 187 kts 76°
2026-04-22 11:17 44.39964 8.91493 6384 ft 190 kts 79°
2026-04-22 11:18 44.40160 8.93313 7092 ft 192 kts 78°
2026-04-22 11:18 44.40360 8.95023 8346 ft 179 kts 77°
2026-04-22 11:18 44.40564 8.96629 9230 ft 170 kts 75°
2026-04-22 11:18 44.40814 8.98375 9559 ft 198 kts 75°
2026-04-22 11:19 44.41098 9.00275 10225 ft 207 kts 73°
2026-04-22 11:19 44.41408 9.02274 10925 ft 213 kts 73°
2026-04-22 11:19 44.41723 9.04291 11653 ft 219 kts 72°
2026-04-22 11:19 44.42057 9.06365 12416 ft 224 kts 71°
2026-04-22 11:20 44.42540 9.08412 13123 ft 222 kts 52°
2026-04-22 11:20 44.43487 9.10064 13928 ft 217 kts 40°
2026-04-22 11:20 44.44501 9.11628 14701 ft 222 kts 38°
2026-04-22 11:20 44.45530 9.13197 15484 ft 226 kts 38°
2026-04-22 11:21 44.46595 9.14844 16285 ft 230 kts 38°
2026-04-22 11:21 44.47659 9.16496 17086 ft 233 kts 37°
2026-04-22 11:21 44.48740 9.18166 17871 ft 237 kts 36°
2026-04-22 11:21 44.49845 9.19854 18665 ft 240 kts 36°
2026-04-22 11:22 44.50988 9.21615 19405 ft 246 kts 34°
2026-04-22 11:22 44.52117 9.23350 19865 ft 243 kts 34°
2026-04-22 11:22 44.53262 9.25116 20016 ft 251 kts 35°
2026-04-22 11:22 44.54469 9.26960 20084 ft 262 kts 34°
2026-04-22 11:23 44.55736 9.28885 20107 ft 275 kts 36°
2026-04-22 11:23 44.57059 9.30909 20115 ft 289 kts 37°
2026-04-22 11:23 44.58448 9.33056 20108 ft 301 kts 37°
2026-04-22 11:23 44.59878 9.35268 20101 ft 312 kts 37°
2026-04-22 11:24 44.61347 9.37542 20102 ft 321 kts 38°
2026-04-22 11:24 44.62851 9.39881 20105 ft 328 kts 38°
2026-04-22 11:24 44.64389 9.42285 20115 ft 334 kts 38°
2026-04-22 11:24 44.65951 9.44723 20110 ft 339 kts 38°
2026-04-22 11:25 44.67538 9.47217 20116 ft 343 kts 39°
2026-04-22 11:25 44.69117 9.49712 20113 ft 346 kts 39°
2026-04-22 11:25 44.70737 9.52259 20129 ft 348 kts 38°
2026-04-22 11:25 44.72360 9.54792 20124 ft 350 kts 38°
2026-04-22 11:26 44.73977 9.57343 20141 ft 351 kts 39°
2026-04-22 11:26 44.75606 9.59901 20155 ft 352 kts 38°
2026-04-22 11:26 44.77235 9.62461 20125 ft 353 kts 39°
2026-04-22 11:26 44.78869 9.65042 20142 ft 352 kts 39°
2026-04-22 11:27 44.80505 9.67611 20140 ft 353 kts 39°
2026-04-22 11:27 44.82132 9.70172 20151 ft 353 kts 40°
2026-04-22 11:27 44.83766 9.72745 20152 ft 353 kts 39°
2026-04-22 11:27 44.85408 9.75327 20159 ft 353 kts 40°
2026-04-22 11:28 44.87038 9.77902 20171 ft 353 kts 39°
2026-04-22 11:28 44.88670 9.80471 20163 ft 353 kts 40°
2026-04-22 11:28 44.90299 9.83060 20166 ft 353 kts 39°
2026-04-22 11:28 44.91937 9.85636 20160 ft 353 kts 39°
2026-04-22 11:29 44.93554 9.88191 20181 ft 354 kts 40°
2026-04-22 11:29 44.95181 9.90775 20161 ft 353 kts 39°
2026-04-22 11:29 44.96814 9.93359 20169 ft 353 kts 40°
2026-04-22 11:29 44.98446 9.95970 20181 ft 353 kts 40°
2026-04-22 11:30 45.00067 9.98560 20175 ft 352 kts 39°
2026-04-22 11:30 45.01715 10.01162 20178 ft 352 kts 39°
2026-04-22 11:30 45.03326 10.03710 20174 ft 352 kts 39°
2026-04-22 11:30 45.04950 10.06296 20176 ft 353 kts 40°
2026-04-22 11:31 45.06573 10.08882 20171 ft 352 kts 40°
2026-04-22 11:31 45.08205 10.11474 20185 ft 352 kts 40°
2026-04-22 11:31 45.09821 10.14054 20178 ft 351 kts 40°
2026-04-22 11:31 45.11437 10.16637 20182 ft 350 kts 41°
2026-04-22 11:32 45.13060 10.19234 20173 ft 350 kts 40°
2026-04-22 11:32 45.14663 10.21802 20177 ft 350 kts 40°
2026-04-22 11:32 45.16272 10.24376 20166 ft 350 kts 41°
2026-04-22 11:32 45.17874 10.26943 20164 ft 349 kts 41°
2026-04-22 11:33 45.19479 10.29517 20176 ft 349 kts 41°
2026-04-22 11:33 45.21074 10.32106 20173 ft 349 kts 42°
2026-04-22 11:33 45.22667 10.34703 20167 ft 348 kts 42°
2026-04-22 11:33 45.24250 10.37260 20167 ft 347 kts 41°
2026-04-22 11:34 45.25846 10.39823 20159 ft 347 kts 41°
2026-04-22 11:34 45.27438 10.42380 20173 ft 346 kts 42°
2026-04-22 11:34 45.29036 10.44952 20173 ft 345 kts 42°
2026-04-22 11:34 45.30608 10.47501 20157 ft 345 kts 43°
2026-04-22 11:35 45.32162 10.50043 20165 ft 344 kts 43°
2026-04-22 11:35 45.33746 10.52596 20156 ft 343 kts 43°
2026-04-22 11:35 45.35328 10.55152 20158 ft 342 kts 43°
2026-04-22 11:35 45.36880 10.57686 20163 ft 342 kts 43°
2026-04-22 11:36 45.38438 10.60221 20166 ft 341 kts 42°
2026-04-22 11:36 45.40001 10.62765 20156 ft 341 kts 43°
2026-04-22 11:36 45.41560 10.65326 20161 ft 341 kts 44°
2026-04-22 11:36 45.43104 10.67831 20158 ft 340 kts 43°
2026-04-22 11:37 45.44656 10.70361 20164 ft 339 kts 44°
2026-04-22 11:37 45.46215 10.72900 20158 ft 339 kts 44°
2026-04-22 11:37 45.47761 10.75424 20154 ft 339 kts 44°
2026-04-22 11:37 45.49300 10.77952 20153 ft 338 kts 44°
2026-04-22 11:38 45.50834 10.80453 20153 ft 337 kts 45°
2026-04-22 11:38 45.52364 10.82978 20160 ft 336 kts 44°
2026-04-22 11:38 45.55437 10.88000 20149 ft 335 kts 45°
2026-04-22 11:39 45.56937 10.90472 20149 ft 335 kts 45°
2026-04-22 11:39 45.58467 10.92970 20150 ft 335 kts 45°
2026-04-22 11:39 45.59990 10.95491 20158 ft 334 kts 45°
2026-04-22 11:39 45.61518 10.97998 20143 ft 334 kts 45°
2026-04-22 11:40 45.63038 11.00472 20141 ft 334 kts 44°
2026-04-22 11:40 45.64828 11.02490 20118 ft 325 kts 23°
2026-04-22 11:40 45.66968 11.03358 20156 ft 320 kts 10°
2026-04-22 11:40 45.69152 11.03940 20149 ft 320 kts
2026-04-22 11:41 45.71340 11.04497 20140 ft 319 kts
2026-04-22 11:41 45.73541 11.05057 20132 ft 319 kts
2026-04-22 11:41 45.75711 11.05604 20122 ft 318 kts
2026-04-22 11:41 45.77896 11.06147 20120 ft 318 kts
2026-04-22 11:42 45.80074 11.06688 20122 ft 319 kts
2026-04-22 11:42 45.82246 11.07224 20123 ft 319 kts
2026-04-22 11:42 45.84457 11.07769 20126 ft 319 kts
2026-04-22 11:42 45.86623 11.08313 20117 ft 319 kts
2026-04-22 11:43 45.88802 11.08862 20119 ft 319 kts
2026-04-22 11:43 45.90986 11.09401 20124 ft 319 kts
2026-04-22 11:43 45.93185 11.09948 20122 ft 319 kts
2026-04-22 11:43 45.95330 11.10497 20096 ft 303 kts
2026-04-22 11:44 45.97309 11.10992 20090 ft 278 kts
2026-04-22 11:44 45.99144 11.11442 20090 ft 253 kts
2026-04-22 11:44 46.00807 11.11841 19866 ft 239 kts
2026-04-22 11:44 46.02470 11.12256 18907 ft 253 kts 11°
2026-04-22 11:45 46.04192 11.12901 17890 ft 266 kts 17°
2026-04-22 11:45 46.05973 11.13696 16869 ft 274 kts 17°
2026-04-22 11:45 46.07815 11.14529 15821 ft 283 kts 18°
2026-04-22 11:45 46.09683 11.15390 14811 ft 269 kts 17°
2026-04-22 11:46 46.11498 11.16204 13753 ft 283 kts 16°
2026-04-22 11:46 46.13397 11.16954 12752 ft 289 kts 15°
2026-04-22 11:46 46.15356 11.17718 11747 ft 294 kts 15°
2026-04-22 11:46 46.17312 11.18496 10747 ft 298 kts 15°
2026-04-22 11:47 46.19308 11.19273 9735 ft 301 kts 15°
2026-04-22 11:47 46.21317 11.20061 8716 ft 303 kts 15°
2026-04-22 11:47 46.23354 11.20878 7578 ft 309 kts 16°
2026-04-22 11:47 46.25361 11.21860 6654 ft 306 kts 20°
2026-04-22 11:48 46.27313 11.22938 6165 ft 290 kts 21°
2026-04-22 11:48 46.29130 11.23951 5775 ft 274 kts 21°
2026-04-22 11:48 46.30878 11.24914 5305 ft 264 kts 22°
2026-04-22 11:48 46.32562 11.25860 4838 ft 257 kts 21°
2026-04-22 11:49 46.34211 11.26772 4347 ft 251 kts 22°
2026-04-22 11:49 46.35804 11.27665 3853 ft 247 kts 22°
2026-04-22 11:49 46.37421 11.28519 3412 ft 241 kts 21°
2026-04-22 11:49 46.38911 11.29337 3021 ft 223 kts 24°
2026-04-22 11:50 46.40273 11.30210 2582 ft 207 kts 26°
2026-04-22 11:50 46.41542 11.31014 2169 ft 196 kts 23°
2026-04-22 11:50 46.42789 11.31669 1629 ft 193 kts 18°
2026-04-22 11:50 46.44049 11.32089 1357 ft 172 kts
2026-04-22 11:51 46.45152 11.31799 1476 ft 158 kts 347°
2026-04-22 11:51 46.46223 11.31404 1626 ft 155 kts 347°
2026-04-22 11:51 46.47294 11.31142 1724 ft 162 kts
2026-04-22 11:51 46.48305 11.31714 1829 ft 149 kts 46°
2026-04-22 11:52 46.48427 11.33013 1454 ft 141 kts 130°
2026-04-22 11:52 46.47506 11.33171 1167 ft 151 kts 202°
2026-04-22 11:52 46.46534 11.32775 883 ft 139 kts 188°
2026-04-22 11:52 46.45737 11.32565 825 ft 81 kts 191°
2026-04-22 11:53 46.45467 11.32494 825 ft 14 kts 189°
2026-04-22 11:53 46.45431 11.32526 825 ft 4 kts 30°
2026-04-22 11:53 46.45530 11.32524 825 ft 19 kts 354°
2026-04-22 11:53 46.45655 11.32544 824 ft 17 kts
2026-04-22 11:54 46.45836 11.32592 824 ft 34 kts 10°
2026-04-22 11:54 46.46046 11.32645 824 ft 27 kts
2026-04-22 11:54 46.46212 11.32693 825 ft 20 kts 21°
2026-04-22 11:54 46.46252 11.32827 827 ft 7 kts 65°
2026-04-22 11:55 46.46250 11.32879 827 ft 0 kts 99°